#timestamp,LO_Frequency,Hit,StdDev 
1553313615.3,286046996.9,N
1553313635.1,286046999.2,N
1553313655.8,286046999.6,N
1553313675.7,286046996.9,N
1553313695.5,286046998.2,N
1553313715.4,286046996.6,N
1553313735.2,286046997.1,N
1553313755.0,286046995.4,N
1553313755.9,286046995.4,N
1553313775.8,286046995.2,N
1553313795.6,286046995.5,N
1553313815.4,286046996.2,N
1553313835.3,286046996.1,N
1553313855.1,286046996.3,N
1553313875.9,286046994.8,N
1553313895.7,286046995.9,N
1553313915.5,286046995.9,N
1553313935.4,286046993.8,Y
1553313955.2,286046995.5,P
1553313975.0,286046997.3,N
1553313976.0,286046997.3,N
1553313995.8,286046995.3,Y
1553314015.6,286046999.4,P
1553314035.5,286046999.4,N
1553314055.3,286046998.4,N
1553314075.1,286047000.1,N
1553314095.9,286047001.0,N
1553314115.7,286047000.5,N
1553314135.6,286046999.4,N
1553314155.4,286046996.9,N
1553314175.2,286046996.8,N
1553314195.1,286046996.9,N
1553314196.0,286046996.9,N
1553314215.8,286046997.0,N
1553314235.6,286046996.1,N
1553314255.5,286046995.7,N
1553314275.3,286046997.1,N
1553314295.2,286046999.5,N
1553314315.9,286046996.8,N
1553314335.7,286046997.7,N
1553314355.6,286046994.9,Y
1553314375.4,286046996.7,P
1553314395.2,286046996.8,P
1553314415.1,286046996.7,P
1553314416.0,286046996.7,Y
1553314435.8,286046998.1,P
1553314455.7,286047000.5,N
1553314475.5,286047001.1,N
1553314495.3,286047000.3,N
1553314515.2,286047001.1,N
1553314535.0,286046996.7,N
1553314535.9,286046996.7,N
1553314555.8,286046999.2,N
1553314575.6,286046996.5,N
1553314595.4,286046996.7,N
1553314615.3,286046997.3,N
1553314635.1,286046997.2,N
1553314655.8,286046996.6,N
1553314675.7,286046999.2,N
1553314695.5,286046999.1,N
1553314715.4,286046996.8,N
1553314735.2,286046997.4,N
1553314755.0,286046999.5,N
1553314775.4,286046997.8,N
1553314795.3,286046995.0,Y
1553314815.1,286046998.7,P
1553314835.9,286047001.0,P
1553314855.7,286046998.3,N
1553314875.5,286046999.2,N
1553314895.4,286046999.1,N
1553314915.2,286047000.6,N
1553314935.0,286047000.8,N
1553314935.9,286047000.8,N
1553314955.8,286046998.2,N
1553314975.6,286046998.1,N
1553314995.5,286047001.1,N
1553315015.2,286046996.5,N
1553315035.0,286046996.8,N
1553315035.9,286046996.8,N
1553315055.8,286046999.1,N
1553315075.6,286046996.7,N
1553315095.4,286046996.5,N
1553315115.3,286046997.6,N
1553315135.1,286046996.0,N
1553315155.8,286046995.8,N
1553315175.7,286046997.9,N
1553315225.6,286046997.4,E
1553315235.5,286046997.3,N
1553315255.3,286046999.1,P
1553315275.1,286046999.0,N
1553315295.9,286046998.6,N
1553315315.7,286047001.0,N
1553315335.6,286047001.1,N
1553315355.4,286046999.9,N
1553315375.2,286047000.9,N
1553315395.1,286047002.8,N
1553315396.0,286047002.8,N
1553315415.8,286047000.4,N
1553315435.6,286047000.5,N
1553315455.5,286046999.7,N
1553315475.3,286047000.1,N
1553315495.2,286047000.2,N
1553315515.9,286047000.8,N
1553315535.7,286047000.6,N
1553315555.6,286047001.2,N
1553315575.4,286046996.5,N
1553315595.2,286046996.7,N
1553315615.1,286046996.7,N
1553315616.0,286046996.7,N
1553315635.8,286046997.7,N
1553315655.7,286046997.2,N
1553315675.5,286046998.4,N
1553315695.3,286046998.3,N
1553315715.2,286047000.6,N
1553315735.0,286047002.5,N
1553315735.9,286047002.5,N
1553315755.7,286047000.6,N
1553315775.6,286047002.8,N
1553315795.4,286047000.8,N
1553315815.3,286047001.0,N
1553315835.1,286046999.1,N
1553315836.0,286046999.1,N
1553315855.8,286046999.6,N
1553315875.7,286046994.9,N
1553315895.5,286046997.9,N
1553315915.4,286046998.0,N
1553315935.2,286046996.7,N
1553315955.0,286046997.4,N
1553315955.9,286046997.4,N
1553315975.8,286046997.3,N
1553315995.6,286046997.1,N
1553316015.4,286046996.8,N
1553316035.3,286046998.7,N
1553316055.1,286046998.3,N
1553316075.8,286047001.1,N
1553316095.7,286047000.6,N
1553316115.5,286047000.7,N
1553316135.4,286047000.8,N
1553316155.2,286046998.7,N
1553316175.0,286046999.4,N
1553316175.9,286046999.4,N
1553316195.8,286046996.6,N
1553316215.6,286046998.5,N
1553316235.5,286046996.5,N
1553316255.3,286046998.2,N
1553316275.1,286046999.9,N
1553316295.9,286047001.1,N
1553316315.7,286046998.1,N
1553316335.5,286046998.7,N
1553316355.4,286046996.8,N
1553316375.2,286046996.7,N
1553316395.1,286046999.6,N
1553316396.0,286046999.6,N
1553316415.8,286046998.3,N
1553316435.6,286047000.8,N
1553316455.5,286047001.1,N
1553316475.3,286047000.6,N
1553316495.2,286046998.7,N
1553316515.9,286046998.3,N
1553316535.7,286046998.5,N
1553316555.6,286046998.5,N
1553316575.4,286047002.4,N
1553316595.3,286047002.3,N
1553316615.1,286046999.9,N
1553316616.0,286046999.9,N
1553316635.8,286047000.7,N
1553316655.7,286046998.4,N
1553316675.5,286046999.0,N
1553316695.4,286046998.8,N
1553316715.2,286046999.1,N
1553316735.0,286046999.3,N
1553316735.9,286046999.3,N
1553316755.8,286046998.1,N
1553316775.6,286047001.0,N
1553316795.4,286047000.0,N
1553316815.3,286046999.7,N
1553316835.1,286046999.8,N
1553316855.9,286047004.3,Y
1553316875.7,286047004.2,P
1553316895.5,286047002.9,N
1553316915.5,286047002.8,N
1553316935.4,286047001.1,N
1553316955.2,286047000.7,N
1553316975.1,286046998.5,N
1553316976.0,286046998.5,N
1553316995.8,286046998.1,N
1553317015.6,286047001.0,N
1553317035.5,286047000.6,N
1553317055.3,286046998.9,N
1553317075.2,286046998.6,N
1553317095.9,286047000.8,N
1553317115.7,286047001.8,N
1553317135.6,286047000.2,N
1553317155.4,286047000.1,N
1553317175.2,286047000.8,N
1553317195.1,286047000.6,N
1553317196.0,286047000.6,N
